Погода в Ленинском

Россия / Амурская область     49°15′22″N   129°57′00″E
темп.,
°C
ветер,
м/с
пор.,
м/с
влажн.,
%
обл.,
%
осадки,
мм/ч
давл.,
гПа
погр.,
м
4 марта, чт
чт400:00−12юв5991100 0.0 1014173
03:00−12юв5894100 0.0 1012165
06:00−10ююв5895100 1.6 1011218
09:00−8ююв469598 2.2 1011181
12:00−4юв459499 0.1 1009261
15:00−2юв4694100 0.3 1007357
18:00−2сз1298100 0.6 100892
21:00−8сз71194100 1.5 1010418
5 марта, пт
пт500:00−13сз71292100 0.4 1013553
03:00−17сз81488100 0.5 1017633
06:00−23сз8148370 0.0 1022486
09:00−24сз8148035 0.0 1025628
12:00−22зсз912800 0.0 1026873
15:00−20зсз9137946 0.0 10281182
18:00−20зсз61285100 0.0 1031741
21:00−22зсз5118694 0.0 1033234
6 марта, сб
сб600:00−23зсз5118816 0.0 1034197
03:00−23сз5118835 0.0 1035226
06:00−26сз34910 0.0 103544
09:00−22ссз24890 0.0 1035146
12:00−17ссз24800 0.0 1032340
15:00−13сз478025 0.0 1030650
18:00−17ссз34859 0.0 103067
21:00−20зюз22875 0.0 103220
7 марта, вс
вс700:00−22ююв119211 0.0 103020
03:00−20юв229050 0.0 102922
06:00−18юв2397100 0.1 102882
09:00−15юв2395100 0.5 1027151
12:00−11в0186100 0.1 1025412
15:00−10ссз338298 0.2 1024479
18:00−14сз229014 0.0 102521
21:00−17зсз12948 0.0 102720
8 марта, пн
пн800:00−18зюз019855 0.0 102820
03:00−18ю129875 0.1 102720
06:00−18ююв229672 0.0 102720
09:00−14ююв349236 0.0 1026123
12:00−8ююв458969 0.0 1023330
15:00−3юв468584 0.0 1019356
18:00−4зсз128426 0.0 101823
21:00−5зюз488663 0.0 1019187